Change the Weather History Date:

Friday, November 1, 2013

  Actual Average (KLEX) Record (KLEX)
Temperature  
Mean Temperature 57 °F 52 °F  
Max Temperature 64 °F 62 °F 83 °F (1987)
Min Temperature 50 °F 42 °F 22 °F (1963)
Degree Days  
Heating Degree Days 8 13  
Month to date heating degree days 13  
Since 1 July heating degree days 339  
Cooling Degree Days 0 0  
Month to date cooling degree days 0  
Year to date cooling degree days 1188  
Growing Degree Days 7 (Base 50)    
Moisture  
Dew Point 48 °F    
Average Humidity 74    
Maximum Humidity 100    
Minimum Humidity 48    
Precipitation  
Precipitation 0.00 in 0.12 in 3.34 in (1919)
Month to date precipitation 0.12  
Year to date precipitation 37.83  
Snow  
Snow 0.00 in 0.00 in 0.10 in (1954)
Month to date snowfall 0.0  
Since 1 July snowfall 0.0  
Since 1 September snowfall 0.0  
Snow Depth -    
Sea Level Pressure  
Sea Level Pressure 29.74 in    
Wind  
Wind Speed 13 mph (WSW)    
Max Wind Speed 26 mph    
Max Gust Speed 39 mph    
Visibility 10 miles    
Events Rain    
T = Trace of Precipitation, MM = Missing Value Source: NWS Daily Summary

Daily Weather History Graph

Daily Weather History Graph

Search for Another Location

Airport or City:

Trip Planner

Search our weather history database for the weather conditions in past years. The results will help you decide how hot, cold, wet, or windy it might be!

Date:

Astronomy

Nov. 01, 2013 Rise Set
Actual Time 8:04 AM EDT 6:40 PM EDT
Civil Twilight 7:37 AM EDT 7:07 PM EDT
Nautical Twilight 7:06 AM EDT 7:38 PM EDT
Astronomical Twilight 6:35 AM EDT 8:08 PM EDT
Moon 5:57 AM EDT (11/1) 5:31 PM EDT (11/1)
Length of Visible Light 11h 30m
Length of Day
10h 36m
Waning Crescent, 4% of the Moon is Illuminated
Nov 1
Waning Crescent
Nov 3
New
Nov 10
First Quarter
Nov 17
Full
Nov 25
Last Quarter

Hourly Weather History & Observations

Time (EDT) Temp. Dew Point Humidity Pressure Visibility Wind Dir Wind Speed Gust Speed Precip Events Conditions
12:15 AM 64.4 °F 62.6 °F 94% 29.55 in 7.0 mi SW 19.6 mph 27.6 mph N/A Rain Rain
12:35 AM 60.8 °F 60.8 °F 100% 29.60 in 1.2 mi WSW 23.0 mph 39.1 mph N/A Rain Heavy Rain
12:55 AM 62.6 °F 60.8 °F 94% 29.59 in 5.0 mi WSW 26.5 mph 33.4 mph N/A Rain Rain
1:15 AM 62.6 °F 60.8 °F 94% 29.59 in 7.0 mi WSW 18.4 mph 32.2 mph N/A Rain Rain
1:35 AM 62.6 °F 60.8 °F 94% 29.60 in 10.0 mi WSW 13.8 mph 28.8 mph N/A Rain Light Rain
1:55 AM 59.0 °F 53.6 °F 82% 29.63 in 10.0 mi West 23.0 mph 33.4 mph N/A Rain Light Rain
2:15 AM 55.4 °F 53.6 °F 94% 29.62 in 7.0 mi West 18.4 mph 27.6 mph N/A Rain Light Rain
2:35 AM 57.2 °F 53.6 °F 88% 29.63 in 10.0 mi West 13.8 mph 23.0 mph N/A Rain Light Rain
2:55 AM 57.2 °F 53.6 °F 88% 29.63 in 10.0 mi West 20.7 mph 24.2 mph N/A   Overcast
3:15 AM 55.4 °F 53.6 °F 94% 29.64 in 10.0 mi West 16.1 mph 26.5 mph N/A   Scattered Clouds
3:35 AM 55.4 °F 53.6 °F 94% 29.66 in 10.0 mi West 16.1 mph 25.3 mph N/A   Mostly Cloudy
3:55 AM 55.4 °F 53.6 °F 94% 29.67 in 10.0 mi West 13.8 mph 28.8 mph N/A   Overcast
4:15 AM 55.4 °F 53.6 °F 94% 29.69 in 10.0 mi West 10.4 mph 19.6 mph N/A   Overcast
4:35 AM 55.4 °F 51.8 °F 88% 29.70 in 10.0 mi West 9.2 mph - N/A   Overcast
4:55 AM 55.4 °F 51.8 °F 88% 29.70 in 10.0 mi West 8.1 mph 18.4 mph N/A   Overcast
5:15 AM 55.4 °F 50.0 °F 82% 29.70 in 10.0 mi WNW 16.1 mph 23.0 mph N/A   Mostly Cloudy
5:55 AM 53.6 °F 50.0 °F 88% 29.72 in 10.0 mi West 11.5 mph - N/A   Scattered Clouds
6:15 AM 53.6 °F 50.0 °F 88% 29.73 in 10.0 mi West 9.2 mph - N/A   Scattered Clouds
6:35 AM 51.8 °F 50.0 °F 94% 29.74 in 10.0 mi West 6.9 mph - N/A   Clear
6:55 AM 51.8 °F 50.0 °F 94% 29.74 in 10.0 mi WSW 4.6 mph - N/A   Clear
7:15 AM 51.8 °F 50.0 °F 94% 29.75 in 10.0 mi West 6.9 mph - N/A   Clear
7:35 AM 50.0 °F 50.0 °F 100% 29.77 in 10.0 mi WSW 4.6 mph - N/A   Scattered Clouds
7:55 AM 50.0 °F 48.2 °F 94% 29.78 in 10.0 mi SW 4.6 mph - N/A   Mostly Cloudy
8:15 AM 50.0 °F 46.4 °F 87% 29.78 in 10.0 mi WSW 3.5 mph - N/A   Scattered Clouds
8:35 AM 50.0 °F 46.4 °F 87% 29.78 in 10.0 mi Calm Calm - N/A   Clear
8:55 AM 50.0 °F 46.4 °F 87% 29.79 in 10.0 mi SW 5.8 mph - N/A   Clear
9:15 AM 51.8 °F 48.2 °F 88% 29.79 in 10.0 mi SW 8.1 mph - N/A   Clear
9:35 AM 51.8 °F 50.0 °F 94% 29.80 in 10.0 mi SW 9.2 mph - N/A   Scattered Clouds
9:55 AM 53.6 °F 50.0 °F 88% 29.81 in 10.0 mi SW 10.4 mph - N/A   Scattered Clouds
10:15 AM 55.4 °F 50.0 °F 82% 29.81 in 10.0 mi SW 9.2 mph - N/A   Scattered Clouds
10:35 AM 55.4 °F 50.0 °F 82% 29.81 in 10.0 mi WSW 10.4 mph 16.1 mph N/A   Scattered Clouds
10:55 AM 57.2 °F 50.0 °F 77% 29.80 in 10.0 mi SW 11.5 mph - N/A   Scattered Clouds
11:15 AM 59.0 °F 48.2 °F 67% 29.79 in 10.0 mi SW 9.2 mph - N/A   Clear
11:35 AM 59.0 °F 46.4 °F 63% 29.79 in 10.0 mi West 11.5 mph 17.3 mph N/A   Clear
11:55 AM 59.0 °F 46.4 °F 63% 29.79 in 10.0 mi WSW 5.8 mph - N/A   Clear
12:15 PM 60.8 °F 44.6 °F 55% 29.79 in 10.0 mi West 6.9 mph 16.1 mph N/A   Clear
12:35 PM 60.8 °F 44.6 °F 55% 29.79 in 10.0 mi West 11.5 mph - N/A   Clear
12:55 PM 60.8 °F 44.6 °F 55% 29.78 in 10.0 mi WSW 10.4 mph - N/A   Scattered Clouds
1:15 PM 62.6 °F 44.6 °F 52% 29.78 in 10.0 mi WSW 12.7 mph 17.3 mph N/A   Mostly Cloudy
1:35 PM 64.4 °F 46.4 °F 52% 29.77 in 10.0 mi West 12.7 mph 18.4 mph N/A   Mostly Cloudy
1:55 PM 60.8 °F 44.6 °F 55% 29.75 in 10.0 mi West 13.8 mph 17.3 mph N/A   Scattered Clouds
2:15 PM 64.4 °F 44.6 °F 49% 29.75 in 10.0 mi WNW 13.8 mph - N/A   Scattered Clouds
2:35 PM 62.6 °F 44.6 °F 52% 29.75 in 10.0 mi SW 13.8 mph 18.4 mph N/A   Mostly Cloudy
2:55 PM 64.4 °F 44.6 °F 49% 29.74 in 10.0 mi WSW 9.2 mph 17.3 mph N/A   Mostly Cloudy
3:15 PM 62.6 °F 44.6 °F 52% 29.74 in 10.0 mi WSW 11.5 mph 17.3 mph N/A   Scattered Clouds
3:35 PM 60.8 °F 44.6 °F 55% 29.74 in 10.0 mi WSW 9.2 mph - N/A   Scattered Clouds
3:55 PM 64.4 °F 44.6 °F 49% 29.74 in 10.0 mi WSW 12.7 mph 19.6 mph N/A   Mostly Cloudy
4:15 PM 62.6 °F 44.6 °F 52% 29.73 in 10.0 mi WSW 8.1 mph - N/A   Mostly Cloudy
6:15 PM 60.8 °F 41.0 °F 48% 29.73 in 10.0 mi WSW 9.2 mph - N/A   Clear
6:35 PM 59.0 °F 41.0 °F 51% 29.74 in 10.0 mi WSW 5.8 mph - N/A   Scattered Clouds
6:55 PM 59.0 °F 41.0 °F 51% 29.74 in 10.0 mi SW 5.8 mph - N/A   Overcast
7:15 PM 57.2 °F 41.0 °F 55% 29.75 in 10.0 mi SW 4.6 mph - N/A   Mostly Cloudy
7:35 PM 57.2 °F 42.8 °F 59% 29.75 in 10.0 mi SW 4.6 mph - N/A   Overcast
7:55 PM 57.2 °F 42.8 °F 59% 29.76 in 10.0 mi SW 3.5 mph - N/A   Overcast
8:15 PM 55.4 °F 42.8 °F 63% 29.76 in 10.0 mi SSW 4.6 mph - N/A   Overcast
8:35 PM 55.4 °F 42.8 °F 63% 29.76 in 10.0 mi SW 3.5 mph - N/A   Overcast
8:55 PM 55.4 °F 42.8 °F 63% 29.76 in 10.0 mi SSW 3.5 mph - N/A   Overcast
9:15 PM 55.4 °F 42.8 °F 63% 29.77 in 10.0 mi SW 3.5 mph - N/A   Overcast
9:35 PM 53.6 °F 42.8 °F 67% 29.77 in 10.0 mi WSW 4.6 mph - N/A   Mostly Cloudy
9:55 PM 53.6 °F 42.8 °F 67% 29.78 in 10.0 mi West 5.8 mph - N/A   Mostly Cloudy
10:15 PM 55.4 °F 42.8 °F 63% 29.79 in 10.0 mi WNW 9.2 mph - N/A   Mostly Cloudy
10:35 PM 57.2 °F 42.8 °F 59% 29.80 in 10.0 mi WNW 11.5 mph 16.1 mph N/A   Overcast
10:55 PM 55.4 °F 42.8 °F 63% 29.81 in 10.0 mi NW 11.5 mph 16.1 mph N/A   Mostly Cloudy
11:15 PM 53.6 °F 42.8 °F 67% 29.82 in 10.0 mi NW 4.6 mph - N/A   Mostly Cloudy
11:35 PM 55.4 °F 42.8 °F 63% 29.82 in 10.0 mi WNW 5.8 mph - N/A   Overcast
11:55 PM 53.6 °F 42.8 °F 67% 29.82 in 10.0 mi WNW 6.9 mph - N/A   Mostly Cloudy